CZ-6A DEB, 61126

Orbit data source: Space-Track

CZ-6A DEB, 61126 is space debris in LEO originally from a launch on Tue, 06 Aug 2024 UTC launched from the Taiyaun Space Center, China (TSC). Debris objects in space refer to the collection of defunct objects orbiting the Earth. Examples of debris include non-operational satellites, rocket bodies, and fragments generated from explosions, collisions, or faulty payload assembly.

Loading next visibility...
Identifier
61126, 2024-140PU
Orbit
LEO
Country
Flag of CNCN / PRC
Related business
Manufacturer
SAST
Mission
Spacecraft
Bus & Motor
Unknown
Mass
Unknown
Launch date (UTC)
2024-08-06 (1 year ago)
Launch vehicle
Unknown
Launch site
Taiyaun Space Center, China (TSC)
Object type
Payload
Rocket body
Debris
Shape & HBR
Unknown shape, 0.1 m
Radar Cross Section
Small (<0.1 m²)

Expand to show TLE details & history
Last TLE update: 6 hours ago

TLE from 6 hours ago
0 CZ-6A DEB
1 61126U 24140PU  25351.33758219  .00012136  00000-0  73944-3 0  9994
2 61126  89.1531 298.5874 0204546  37.4969 324.0329 14.94394626 71826
Epoch: 2025-12-17T08:06Z
TLE epoch observation values (Epoch: 2025-12-17T08:06:07.101Z)
Latitude
0.00004°
Longitude
90.84893°
Altitude
473.154 km
Speed
7.692 km/s
True Right ascension
19h 54m 20s
True Declination
0° 00' 00"
Sunlit
Object was in daylight at epoch
Visualization orbit readout
Latitude
Unknown
Longitude
Unknown
Altitude
Unknown
Speed
Unknown
Apparent Right ascension
Unknown
Apparent Declination
Unknown
Sunlit
N/A
Visualization observer readout
Local Sidereal Time
12:46:21
Azimuth
Unknown
Elevation
Unknown
Doppler factor
Unknown
Orbital elements
Apogee altitude
723.443 km
Perigee altitude
438.747 km
Semi-major axis
6,959.232 km
Eccentricity
0.02045
Inclination
89.1531°
RAAN
298.5874°
Arg. of periapsis
37.4969°
True anomaly
322.62734°
Mean anomaly
324.0329°
Eccentric anomaly
323.33305°
Mean motion
3.73853 °/min
Orbital period
96.29 mins
BSTAR
0.00073944
Loading maneuver chart data...
Computing Atmospheric mass density...
Loading historical data...
Loading historical data...
Loading historical data...
Loading historical data...
Loading historical data...
Loading historical data...
Loading historical data...

Documentation

Showing up to 5 results
|